FHY916 EDDL-LTAI

Flight info

Callsign FHY916
Flight time N/A
Altitude 37000
Route DODEN7Z DODEN Y853 BOMBI DCT ESATI DCT OSBIT DCT TENLO DCT LAMSI DCT SITNI DCT SASAL DCT BABIT DCT NISVA N131 RODIP DCT BELGI UN131 KOZLU
Aircraft A320/M-SDE3FGHIRWY/LB1

Departure

Time N/A
Airport Düsseldorf Airport (EDDL)

Arrival

Time 2026-05-07 16:26
Airport Antalya International Airport (LTAI)
Time Latitude Longitude Altitude Speed Heading
2026-05-07 15:28 40.25577 26.24746 37152 ft 478 kts 132°
2026-05-07 15:28 40.23376 26.28002 37155 ft 478 kts 132°
2026-05-07 15:29 40.18964 26.34520 37156 ft 478 kts 132°
2026-05-07 15:29 40.14550 26.41021 37158 ft 478 kts 132°
2026-05-07 15:30 40.10001 26.47377 37158 ft 478 kts 136°
2026-05-07 15:30 40.05253 26.53378 37154 ft 477 kts 137°
2026-05-07 15:31 40.00431 26.59352 37151 ft 478 kts 137°
2026-05-07 15:31 39.95667 26.65403 37147 ft 478 kts 136°
2026-05-07 15:32 39.90936 26.71507 37146 ft 479 kts 136°
2026-05-07 15:32 39.86189 26.77598 37140 ft 479 kts 136°
2026-05-07 15:33 39.81420 26.83657 37143 ft 479 kts 137°
2026-05-07 15:33 39.76643 26.89701 37144 ft 479 kts 137°
2026-05-07 15:34 39.71854 26.95658 37143 ft 479 kts 137°
2026-05-07 15:34 39.66992 27.01588 37148 ft 479 kts 138°
2026-05-07 15:35 39.62122 27.07511 37152 ft 480 kts 138°
2026-05-07 15:35 39.57264 27.13451 37153 ft 480 kts 137°
2026-05-07 15:36 39.52400 27.19391 37151 ft 480 kts 138°
2026-05-07 15:36 39.47844 27.25632 37145 ft 481 kts 130°
2026-05-07 15:37 39.43588 27.32312 37138 ft 481 kts 130°
2026-05-07 15:37 39.39320 27.38995 37137 ft 481 kts 130°
2026-05-07 15:38 39.35044 27.45659 37134 ft 481 kts 130°
2026-05-07 15:38 39.30762 27.52332 37134 ft 482 kts 130°
2026-05-07 15:39 39.26510 27.58948 37133 ft 482 kts 130°
2026-05-07 15:39 39.22211 27.65611 37136 ft 482 kts 130°
2026-05-07 15:40 39.17915 27.72257 37133 ft 482 kts 130°
2026-05-07 15:40 39.13616 27.78903 37134 ft 482 kts 130°
2026-05-07 15:41 39.09342 27.85496 37135 ft 482 kts 130°
2026-05-07 15:41 39.05026 27.92134 37137 ft 482 kts 130°
2026-05-07 15:42 39.00743 27.98716 37141 ft 483 kts 130°
2026-05-07 15:42 38.96430 28.05324 37145 ft 483 kts 130°
2026-05-07 15:43 38.92107 28.11931 37142 ft 482 kts 130°
2026-05-07 15:43 38.87778 28.18540 37141 ft 483 kts 130°
2026-05-07 15:44 38.84187 28.24013 37141 ft 483 kts 131°
2026-05-07 15:44 38.79839 28.30619 37142 ft 483 kts 131°
2026-05-07 15:45 38.75529 28.37152 37141 ft 483 kts 131°
2026-05-07 15:45 38.71185 28.43735 37145 ft 484 kts 131°
2026-05-07 15:46 38.64645 28.53620 37139 ft 484 kts 131°
2026-05-07 15:47 38.60269 28.60189 37144 ft 485 kts 131°
2026-05-07 15:47 38.55852 28.66710 37146 ft 485 kts 133°
2026-05-07 15:48 38.51248 28.73004 37151 ft 485 kts 134°
2026-05-07 15:48 38.46597 28.79183 37151 ft 485 kts 134°
2026-05-07 15:49 38.41950 28.85442 37154 ft 486 kts 134°
2026-05-07 15:49 38.37329 28.91747 37150 ft 486 kts 134°
2026-05-07 15:50 38.32700 28.98064 37156 ft 487 kts 134°
2026-05-07 15:50 38.28057 29.04354 37156 ft 488 kts 134°
2026-05-07 15:51 38.23390 29.10637 37162 ft 488 kts 134°
2026-05-07 15:51 38.18722 29.16916 37164 ft 489 kts 134°
2026-05-07 15:52 38.14078 29.23166 37165 ft 489 kts 134°
2026-05-07 15:52 38.09422 29.29419 37064 ft 483 kts 134°
2026-05-07 15:52 38.07129 29.32494 36659 ft 478 kts 134°
2026-05-07 15:53 38.04855 29.35552 36183 ft 473 kts 134°
2026-05-07 15:53 38.02613 29.38585 35704 ft 470 kts 134°
2026-05-07 15:53 38.00387 29.41605 35218 ft 466 kts 133°
2026-05-07 15:53 37.98179 29.44599 34745 ft 463 kts 133°
2026-05-07 15:54 37.95982 29.47571 34271 ft 460 kts 133°
2026-05-07 15:54 37.93797 29.50519 33769 ft 457 kts 133°
2026-05-07 15:54 37.91619 29.53452 33280 ft 454 kts 133°
2026-05-07 15:54 37.89462 29.56353 32820 ft 451 kts 133°
2026-05-07 15:55 37.87320 29.59233 32352 ft 447 kts 133°
2026-05-07 15:55 37.85197 29.62086 31934 ft 444 kts 133°
2026-05-07 15:55 37.83104 29.64892 31608 ft 443 kts 133°
2026-05-07 15:55 37.80973 29.67748 31281 ft 448 kts 133°
2026-05-07 15:56 37.78837 29.70609 30966 ft 445 kts 133°
2026-05-07 15:56 37.76701 29.73412 30647 ft 439 kts 134°
2026-05-07 15:56 37.74564 29.76139 30334 ft 435 kts 135°
2026-05-07 15:56 37.72415 29.78826 29983 ft 432 kts 135°
2026-05-07 15:57 37.70276 29.81482 29616 ft 430 kts 135°
2026-05-07 15:57 37.68151 29.84131 29253 ft 428 kts 135°
2026-05-07 15:57 37.66044 29.86770 28905 ft 425 kts 135°
2026-05-07 15:57 37.63953 29.89400 28556 ft 423 kts 135°
2026-05-07 15:58 37.61879 29.92015 28234 ft 420 kts 134°
2026-05-07 15:58 37.59811 29.94624 27954 ft 419 kts 134°
2026-05-07 15:58 37.57754 29.97217 27699 ft 417 kts 134°
2026-05-07 15:58 37.55730 29.99768 27448 ft 416 kts 134°
2026-05-07 15:59 37.53686 30.02351 27193 ft 414 kts 134°
2026-05-07 15:59 37.51647 30.04900 26934 ft 412 kts 139°
2026-05-07 15:59 37.49236 30.06822 26681 ft 408 kts 161°
2026-05-07 15:59 37.46501 30.07573 26427 ft 401 kts 180°
2026-05-07 16:00 37.43714 30.07700 26175 ft 401 kts 181°
2026-05-07 16:00 37.40931 30.07781 25936 ft 399 kts 185°
2026-05-07 16:00 37.38181 30.07513 25692 ft 395 kts 189°
2026-05-07 16:00 37.35449 30.07142 25438 ft 394 kts 190°
2026-05-07 16:01 37.32745 30.06737 25214 ft 392 kts 190°
2026-05-07 16:01 37.30036 30.06321 24972 ft 391 kts 190°
2026-05-07 16:01 37.27374 30.05917 24738 ft 389 kts 190°
2026-05-07 16:01 37.24687 30.05516 24501 ft 388 kts 190°
2026-05-07 16:02 37.22010 30.05125 24275 ft 387 kts 189°
2026-05-07 16:02 37.19338 30.04747 24044 ft 385 kts 189°
2026-05-07 16:02 37.16671 30.04439 23812 ft 385 kts 181°
2026-05-07 16:02 37.14076 30.05107 23547 ft 381 kts 154°
2026-05-07 16:03 37.11986 30.07040 23286 ft 371 kts 127°
2026-05-07 16:03 37.10795 30.09834 23005 ft 361 kts 100°
2026-05-07 16:03 37.10526 30.12918 22741 ft 354 kts 84°
2026-05-07 16:03 37.10670 30.15965 22475 ft 346 kts 81°
2026-05-07 16:04 37.10856 30.18940 22213 ft 339 kts 81°
2026-05-07 16:04 37.11038 30.21817 21947 ft 332 kts 79°
2026-05-07 16:04 37.11585 30.24552 21691 ft 316 kts 59°
2026-05-07 16:04 37.12746 30.26808 21436 ft 302 kts 41°
2026-05-07 16:05 37.14360 30.28422 21191 ft 300 kts 23°
2026-05-07 16:05 37.16347 30.29485 20954 ft 319 kts 17°
2026-05-07 16:05 37.18442 30.30516 20702 ft 325 kts 17°
2026-05-07 16:05 37.20551 30.31560 20462 ft 326 kts 18°
2026-05-07 16:06 37.22659 30.32611 20213 ft 325 kts 18°
2026-05-07 16:06 37.24760 30.33667 19972 ft 324 kts 18°
2026-05-07 16:06 37.26850 30.34718 19743 ft 323 kts 18°
2026-05-07 16:06 37.28910 30.35752 19511 ft 322 kts 18°
2026-05-07 16:07 37.30995 30.36798 19275 ft 322 kts 18°
2026-05-07 16:07 37.33083 30.37846 18953 ft 322 kts 18°
2026-05-07 16:07 37.35156 30.38889 18579 ft 321 kts 18°
2026-05-07 16:07 37.37226 30.39932 18185 ft 320 kts 18°
2026-05-07 16:08 37.39293 30.40956 17758 ft 318 kts 14°
2026-05-07 16:08 37.41439 30.41466 17357 ft 312 kts
2026-05-07 16:08 37.43595 30.41757 16945 ft 311 kts
2026-05-07 16:08 37.45726 30.42043 16541 ft 310 kts
2026-05-07 16:09 37.47875 30.42329 16147 ft 310 kts
2026-05-07 16:09 37.50017 30.42615 15750 ft 308 kts
2026-05-07 16:09 37.52151 30.42902 15365 ft 308 kts
2026-05-07 16:09 37.54289 30.43189 14983 ft 308 kts
2026-05-07 16:10 37.56424 30.43491 14598 ft 308 kts
2026-05-07 16:10 37.58399 30.44513 14231 ft 312 kts 36°
2026-05-07 16:10 37.59724 30.46679 13832 ft 318 kts 66°
2026-05-07 16:10 37.60092 30.49380 13411 ft 311 kts 89°
2026-05-07 16:11 37.59813 30.52046 12984 ft 304 kts 108°
2026-05-07 16:11 37.58679 30.54229 12573 ft 298 kts 140°
2026-05-07 16:11 37.56939 30.55492 12176 ft 289 kts 162°
2026-05-07 16:11 37.54994 30.55859 11763 ft 279 kts 185°
2026-05-07 16:12 37.53065 30.55656 11369 ft 278 kts 187°
2026-05-07 16:12 37.51132 30.55410 10976 ft 280 kts 187°
2026-05-07 16:12 37.49187 30.55144 10584 ft 282 kts 187°
2026-05-07 16:12 37.47253 30.54871 10201 ft 277 kts 187°
2026-05-07 16:13 37.45364 30.54609 9790 ft 269 kts 187°
2026-05-07 16:13 37.43524 30.54355 9371 ft 264 kts 187°
2026-05-07 16:13 37.41713 30.54105 8955 ft 258 kts 187°
2026-05-07 16:13 37.39959 30.53864 8598 ft 248 kts 187°
2026-05-07 16:14 37.38277 30.53936 8296 ft 239 kts 165°
2026-05-07 16:14 37.36795 30.54837 8007 ft 237 kts 139°
2026-05-07 16:14 37.35777 30.56410 7744 ft 231 kts 113°
2026-05-07 16:14 37.35152 30.58271 7533 ft 231 kts 110°
2026-05-07 16:15 37.34540 30.60130 7315 ft 230 kts 110°
2026-05-07 16:15 37.33937 30.61958 7150 ft 229 kts 110°
2026-05-07 16:15 37.33328 30.63804 6980 ft 228 kts 110°
2026-05-07 16:15 37.32718 30.65647 6804 ft 228 kts 111°
2026-05-07 16:16 37.32111 30.67484 6643 ft 226 kts 110°
2026-05-07 16:16 37.31515 30.69281 6468 ft 220 kts 110°
2026-05-07 16:16 37.30932 30.71034 6289 ft 216 kts 110°
2026-05-07 16:16 37.30353 30.72772 6108 ft 215 kts 111°
2026-05-07 16:17 37.29778 30.74503 5931 ft 214 kts 110°
2026-05-07 16:17 37.29202 30.76232 5760 ft 214 kts 110°
2026-05-07 16:17 37.28637 30.77935 5586 ft 214 kts 110°
2026-05-07 16:17 37.28053 30.79646 5409 ft 213 kts 117°
2026-05-07 16:18 37.27151 30.81127 5235 ft 214 kts 137°
2026-05-07 16:18 37.25930 30.82187 5063 ft 213 kts 154°
2026-05-07 16:18 37.24526 30.82778 4899 ft 213 kts 171°
2026-05-07 16:18 37.23054 30.82889 4715 ft 211 kts 180°
2026-05-07 16:19 37.21594 30.82887 4532 ft 208 kts 180°
2026-05-07 16:19 37.20169 30.82892 4363 ft 201 kts 180°
2026-05-07 16:19 37.18786 30.82898 4219 ft 198 kts 180°
2026-05-07 16:19 37.17418 30.82904 4022 ft 196 kts 181°
2026-05-07 16:20 37.16062 30.82815 3852 ft 194 kts 185°
2026-05-07 16:20 37.14737 30.82658 3677 ft 193 kts 186°
2026-05-07 16:20 37.13409 30.82481 3523 ft 191 kts 186°
2026-05-07 16:20 37.12092 30.82300 3435 ft 190 kts 186°
2026-05-07 16:21 37.10780 30.82120 3418 ft 189 kts 186°
2026-05-07 16:21 37.09470 30.81939 3418 ft 190 kts 186°
2026-05-07 16:21 37.08169 30.81760 3360 ft 185 kts 186°
2026-05-07 16:21 37.06905 30.81586 3175 ft 181 kts 186°
2026-05-07 16:22 37.05665 30.81415 2945 ft 177 kts 186°
2026-05-07 16:22 37.04452 30.81248 2744 ft 174 kts 185°
2026-05-07 16:22 37.03273 30.81086 2507 ft 166 kts 185°
2026-05-07 16:22 37.02124 30.80928 2296 ft 165 kts 185°
2026-05-07 16:23 37.00996 30.80772 2068 ft 158 kts 185°
2026-05-07 16:23 36.99945 30.80628 1865 ft 147 kts 186°
2026-05-07 16:23 36.98942 30.80490 1668 ft 143 kts 185°
2026-05-07 16:23 36.97967 30.80356 1473 ft 142 kts 185°
2026-05-07 16:24 36.96980 30.80221 1278 ft 142 kts 185°
2026-05-07 16:24 36.95999 30.80086 1096 ft 141 kts 183°
2026-05-07 16:24 36.95025 30.79952 896 ft 141 kts 184°
2026-05-07 16:24 36.94030 30.79816 709 ft 144 kts 182°
2026-05-07 16:25 36.93032 30.79679 522 ft 143 kts 182°
2026-05-07 16:25 36.92040 30.79543 326 ft 143 kts 182°
2026-05-07 16:25 36.91071 30.79409 197 ft 136 kts 182°
2026-05-07 16:25 36.90262 30.79303 195 ft 94 kts 186°
2026-05-07 16:26 36.89791 30.79238 201 ft 42 kts 187°
2026-05-07 16:26 36.89573 30.79242 189 ft 27 kts 156°
2026-05-07 16:26 36.89446 30.79312 194 ft 13 kts 158°
2026-05-07 16:26 36.89405 30.79333 199 ft 6 kts 156°
2026-05-07 16:27 36.89392 30.79348 198 ft 0 kts 103°
2026-05-07 16:27 36.89391 30.79349 198 ft 1 kts 109°
2026-05-07 16:27 36.89344 30.79369 202 ft 14 kts 168°
2026-05-07 16:27 36.89306 30.79446 198 ft 9 kts 96°
2026-05-07 16:28 36.89298 30.79530 192 ft 7 kts 97°
2026-05-07 16:28 36.89294 30.79581 192 ft 2 kts 99°
2026-05-07 16:28 36.89289 30.79623 197 ft 8 kts 97°
2026-05-07 16:28 36.89287 30.79679 192 ft 3 kts 72°
2026-05-07 16:29 36.89309 30.79695 192 ft 5 kts 11°
2026-05-07 16:29 36.89342 30.79699 205 ft 4 kts
2026-05-07 16:29 36.89359 30.79702 197 ft 1 kts